Time,TemperatureF,DewpointF,PressureIn,WindDirection,WindDirectionDegrees,WindSpeedMPH,WindSpeedGustMPH,Humidity,HourlyPrecipIn,Conditions,Clouds,dailyrainin,SolarRadiationWatts/m^2,SoftwareType,DateUTC
2013-09-23 00:01:00,55.0,46.0,-100.00,SSW,205,0.0,0.0,71,0.00,,,0.00,0.000000,,2013-09-23 07:01:00,
2013-09-23 00:42:00,53.0,45.0,-100.00,SW,222,0.0,2.0,75,0.00,,,0.00,0.000000,,2013-09-23 07:42:00,
2013-09-23 02:43:00,51.0,45.0,-100.00,SSW,206,2.0,5.0,80,0.00,,,0.00,0.000000,,2013-09-23 09:43:00,
2013-09-23 02:53:00,51.0,45.0,-100.00,SSW,206,2.0,5.0,80,0.00,,,0.00,0.000000,,2013-09-23 09:53:00,
2013-09-23 03:03:00,51.0,45.0,-100.00,SSW,206,2.0,5.0,80,0.00,,,0.00,0.000000,,2013-09-23 10:03:00,
2013-09-23 03:42:00,51.0,44.0,-100.00,SW,214,2.0,6.0,78,0.00,,,0.00,0.000000,,2013-09-23 10:42:00,
2013-09-23 03:52:00,51.0,44.0,-100.00,SW,214,2.0,6.0,78,0.00,,,0.00,0.000000,,2013-09-23 10:52:00,
2013-09-23 04:02:00,51.0,44.0,-100.00,SW,214,2.0,6.0,78,0.00,,,0.00,0.000000,,2013-09-23 11:02:00,
2013-09-23 04:42:00,50.0,44.0,-100.00,SW,218,3.0,6.0,80,0.00,,,0.00,0.000000,,2013-09-23 11:42:00,
2013-09-23 04:52:00,50.0,44.0,-100.00,SW,218,3.0,6.0,80,0.00,,,0.00,0.000000,,2013-09-23 11:52:00,
2013-09-23 05:01:00,50.0,44.0,-100.00,SW,218,3.0,6.0,80,0.00,,,0.00,0.000000,,2013-09-23 12:01:00,
2013-09-23 05:42:00,50.0,44.0,-100.00,SW,221,3.0,8.0,79,0.00,,,0.00,0.000000,,2013-09-23 12:42:00,
2013-09-23 05:52:00,50.0,44.0,-100.00,SW,221,3.0,8.0,79,0.00,,,0.00,0.000000,,2013-09-23 12:52:00,
2013-09-23 06:01:00,50.0,44.0,-100.00,SW,221,3.0,8.0,79,0.00,,,0.00,0.000000,,2013-09-23 13:01:00,
2013-09-23 06:22:00,49.0,43.0,-100.00,SSW,207,4.0,8.0,80,0.00,,,0.00,0.000000,,2013-09-23 13:22:00,
2013-09-23 06:32:00,49.0,43.0,-100.00,SSW,207,4.0,8.0,80,0.00,,,0.00,0.000000,,2013-09-23 13:32:00,
2013-09-23 06:42:00,49.0,43.0,-100.00,SSW,207,4.0,8.0,80,0.00,,,0.00,0.000000,,2013-09-23 13:42:00,
2013-09-23 06:52:00,49.0,43.0,-100.00,SSW,207,4.0,8.0,80,0.00,,,0.00,0.000000,,2013-09-23 13:52:00,
2013-09-23 07:01:00,49.0,43.0,-100.00,SSW,207,4.0,8.0,80,0.00,,,0.00,0.000000,,2013-09-23 14:01:00,
2013-09-23 07:43:00,49.0,42.0,-100.00,SSW,207,4.0,7.0,78,0.00,,,0.00,1.000000,,2013-09-23 14:43:00,
2013-09-23 07:52:00,49.0,42.0,-100.00,SSW,207,4.0,7.0,78,0.00,,,0.00,1.000000,,2013-09-23 14:52:00,
2013-09-23 08:02:00,49.0,42.0,-100.00,SSW,207,4.0,7.0,78,0.00,,,0.00,1.000000,,2013-09-23 15:02:00,
2013-09-23 08:22:00,54.0,44.0,-100.00,SSW,203,3.0,8.0,69,0.00,,,0.00,55.000000,,2013-09-23 15:22:00,
2013-09-23 08:33:00,54.0,44.0,-100.00,SSW,203,3.0,8.0,69,0.00,,,0.00,55.000000,,2013-09-23 15:33:00,
2013-09-23 08:43:00,54.0,44.0,-100.00,SSW,203,3.0,8.0,69,0.00,,,0.00,55.000000,,2013-09-23 15:43:00,
2013-09-23 08:54:00,54.0,44.0,-100.00,SSW,203,3.0,8.0,69,0.00,,,0.00,55.000000,,2013-09-23 15:54:00,
2013-09-23 09:03:00,54.0,44.0,-100.00,SSW,203,3.0,8.0,69,0.00,,,0.00,55.000000,,2013-09-23 16:03:00,
2013-09-23 09:43:00,63.0,45.0,-100.00,South,170,1.0,6.0,52,0.00,,,0.00,281.000000,,2013-09-23 16:43:00,
2013-09-23 09:53:00,63.0,45.0,-100.00,South,170,1.0,6.0,52,0.00,,,0.00,281.000000,,2013-09-23 16:53:00,
2013-09-23 10:03:00,63.0,45.0,-100.00,South,170,1.0,6.0,52,0.00,,,0.00,281.000000,,2013-09-23 17:03:00,
2013-09-23 10:42:00,73.0,47.0,-100.00,NNW,345,2.0,5.0,39,0.00,,,0.00,477.000000,,2013-09-23 17:42:00,
2013-09-23 11:42:00,77.0,45.0,-100.00,East,98,7.0,15.0,32,0.00,,,0.00,644.000000,,2013-09-23 18:42:00,
2013-09-23 11:52:00,77.0,45.0,-100.00,East,98,7.0,15.0,32,0.00,,,0.00,644.000000,,2013-09-23 18:52:00,
2013-09-23 12:02:00,77.0,45.0,-100.00,East,98,7.0,15.0,32,0.00,,,0.00,644.000000,,2013-09-23 19:02:00,
2013-09-23 12:42:00,81.0,45.0,-100.00,ENE,69,6.0,15.0,28,0.00,,,0.00,729.000000,,2013-09-23 19:42:00,
2013-09-23 12:53:00,81.0,45.0,-100.00,ENE,69,6.0,15.0,28,0.00,,,0.00,729.000000,,2013-09-23 19:53:00,
2013-09-23 13:02:00,81.0,45.0,-100.00,ENE,69,6.0,15.0,28,0.00,,,0.00,729.000000,,2013-09-23 20:02:00,
2013-09-23 13:22:00,83.0,44.0,-100.00,East,88,6.0,16.0,25,0.00,,,0.00,812.000000,,2013-09-23 20:22:00,
2013-09-23 13:32:00,83.0,44.0,-100.00,East,88,6.0,16.0,25,0.00,,,0.00,812.000000,,2013-09-23 20:32:00,
2013-09-23 13:42:00,83.0,44.0,-100.00,East,88,6.0,16.0,25,0.00,,,0.00,812.000000,,2013-09-23 20:42:00,
2013-09-23 13:52:00,83.0,44.0,-100.00,East,88,6.0,16.0,25,0.00,,,0.00,812.000000,,2013-09-23 20:52:00,
2013-09-23 14:02:00,83.0,44.0,-100.00,East,88,6.0,16.0,25,0.00,,,0.00,812.000000,,2013-09-23 21:02:00,
2013-09-23 14:44:00,86.0,43.0,-100.00,ENE,62,7.0,17.0,22,0.00,,,0.00,826.000000,,2013-09-23 21:44:00,
2013-09-23 14:54:00,86.0,43.0,-100.00,ENE,62,7.0,17.0,22,0.00,,,0.00,826.000000,,2013-09-23 21:54:00,
2013-09-23 15:03:00,86.0,43.0,-100.00,ENE,62,7.0,17.0,22,0.00,,,0.00,826.000000,,2013-09-23 22:03:00,
2013-09-23 15:43:00,87.0,42.0,-100.00,East,92,6.0,15.0,21,0.00,,,0.00,760.000000,,2013-09-23 22:43:00,
2013-09-23 15:54:00,87.0,42.0,-100.00,East,92,6.0,15.0,21,0.00,,,0.00,760.000000,,2013-09-23 22:54:00,
2013-09-23 16:02:00,87.0,42.0,-100.00,East,92,6.0,15.0,21,0.00,,,0.00,760.000000,,2013-09-23 23:02:00,
2013-09-23 16:42:00,87.0,44.0,-100.00,East,98,6.0,13.0,22,0.00,,,0.00,633.000000,,2013-09-23 23:42:00,
2013-09-23 16:54:00,87.0,44.0,-100.00,East,98,6.0,13.0,22,0.00,,,0.00,633.000000,,2013-09-23 23:54:00,
2013-09-23 17:01:00,87.0,44.0,-100.00,East,98,6.0,13.0,22,0.00,,,0.00,633.000000,,2013-09-24 00:01:00,
2013-09-23 17:43:00,87.0,44.0,-100.00,ENE,70,5.0,13.0,22,0.00,,,0.00,460.000000,,2013-09-24 00:43:00,
2013-09-23 17:52:00,87.0,44.0,-100.00,ENE,70,5.0,13.0,22,0.00,,,0.00,460.000000,,2013-09-24 00:52:00,
2013-09-23 18:01:00,87.0,44.0,-100.00,ENE,70,5.0,13.0,22,0.00,,,0.00,460.000000,,2013-09-24 01:01:00,
2013-09-23 18:43:00,84.0,42.0,-100.00,ENE,74,6.0,12.0,23,0.00,,,0.00,170.000000,,2013-09-24 01:43:00,
2013-09-23 18:52:00,84.0,42.0,-100.00,ENE,74,6.0,12.0,23,0.00,,,0.00,170.000000,,2013-09-24 01:52:00,
2013-09-23 19:02:00,84.0,42.0,-100.00,ENE,74,6.0,12.0,23,0.00,,,0.00,170.000000,,2013-09-24 02:02:00,
2013-09-23 19:42:00,78.0,46.0,-100.00,East,98,4.0,10.0,32,0.00,,,0.00,12.000000,,2013-09-24 02:42:00,
2013-09-23 19:52:00,78.0,46.0,-100.00,East,98,4.0,10.0,32,0.00,,,0.00,12.000000,,2013-09-24 02:52:00,
2013-09-23 20:02:00,78.0,46.0,-100.00,East,98,4.0,10.0,32,0.00,,,0.00,12.000000,,2013-09-24 03:02:00,
2013-09-23 20:04:00,72.0,49.0,-100.00,ESE,115,2.0,11.0,44,0.00,,,0.00,0.000000,,2013-09-24 03:04:00,
2013-09-23 20:44:00,72.0,49.0,-100.00,ESE,115,2.0,11.0,44,0.00,,,0.00,0.000000,,2013-09-24 03:44:00,
2013-09-23 20:54:00,72.0,49.0,-100.00,ESE,115,2.0,11.0,44,0.00,,,0.00,0.000000,,2013-09-24 03:54:00,
2013-09-23 21:44:00,66.0,49.0,-100.00,SW,227,0.0,3.0,54,0.00,,,0.00,0.000000,,2013-09-24 04:44:00,
2013-09-23 21:54:00,66.0,49.0,-100.00,SW,227,0.0,3.0,54,0.00,,,0.00,0.000000,,2013-09-24 04:54:00,
2013-09-23 22:03:00,66.0,49.0,-100.00,SW,227,0.0,3.0,54,0.00,,,0.00,0.000000,,2013-09-24 05:03:00,
2013-09-23 22:23:00,62.0,48.0,-100.00,SW,234,1.0,2.0,61,0.00,,,0.00,0.000000,,2013-09-24 05:23:00,
2013-09-23 22:34:00,62.0,48.0,-100.00,SW,234,1.0,2.0,61,0.00,,,0.00,0.000000,,2013-09-24 05:34:00,
2013-09-23 22:43:00,62.0,48.0,-100.00,SW,234,1.0,2.0,61,0.00,,,0.00,0.000000,,2013-09-24 05:43:00,
2013-09-23 23:42:00,60.0,47.0,-100.00,WSW,239,1.0,3.0,62,0.00,,,0.00,0.000000,,2013-09-24 06:42:00,
2013-09-23 23:52:00,60.0,47.0,-100.00,WSW,239,1.0,3.0,62,0.00,,,0.00,0.000000,,2013-09-24 06:52:00,